Presure
135 129 141 130 108 124 134 104 144 133 145 152 126 131 135 130 121 144 166 191 237 222 262 246 198 155 159 130 143 144 134 158 166 182 184 171 159 142 144 138 150 141 145
135 132 118 137 132 141 134 151 146 134 151 120 164 117 144 135 132 142 159 172 304 122 247 140 177 264 163 154 152 139 154 143 149 185 174 160 154 144 116 170 161 149 161
137 135 138 119 142 152 150 120 149 139 126 135 121 167 133 152 158 152 180 176 300 137 140 172 171 234 143 154 144 118 153 149 162 132 127 162 177 174 109 112 145 155 149
139 146 161 150 143 143 152 142 156 162 127 158 143 143 141 146 161 161 174 159 122 114 127 126 214 177 127 189 167 153 151 144 144 160 152 141 170 168 129 131 158 162 154
152 155 145 129 137 153 148 106 145 159 160 164 163 135 155 151 165 163 112 188 111 103 242 117 133 126 134 124 139 211 162 149 124 140 149 148 161 147 151 142 142 156 158
149 156 151 137 157 159 158 112 154 142 170 170 125 156 96 168 158 223 240 129 110 139 111 246 137 235 118 137 138 150 184 158 155 156 152 141 142 143 149 177 139 145 161
151 137 151 152 151 157 153 157 160 128 165 164 165 116 183 216 240 215 232 155 130 260 242 234 208 243 117 173 149 220 193 195 153 164 150 152 141 146 139 139 184 141 161
138 121 144 138 157 151 142 178 119 187 140 253 253 186 203 284 221 111 256 240 232 149 128 245 229 138 109 144 149 215 221 207 194 203 165 153 164 155 160 159 164 134 177
125 162 161 162 180 183 135 256 267 199 253 248 243 179 283 278 129 152 129 217 107 233 147 230 237 237 127 205 196 217 220 157 197 146 201 170 156 167 167 175 153 129 139
161 181 182 189 201 274 115 260 254 250 287 245 218 289 288 273 240 229 239 196 125 160 262 239 169 118 237 206 203 197 207 130 219 145 148 199 118 157 170 168 175 126 130
184 189 222 263 273 264 255 251 248 191 306 317 302 305 287 262 232 231 224 226 178 117 259 180 241 124 115 215 196 204 162 131 144 202 135 154 178 182 167 128 168 151 138
212 269 267 266 260 249 262 294 275 292 300 308 160 288 264 197 100 244 231 226 224 208 251 248 254 251 224 222 201 194 147 202 194 164 190 133 143 142 161 156 168 183 172
260 259 263 254 256 264 283 277 263 275 278 279 275 266 253 243 245 225 238 216 232 213 257 219 235 225 230 126 237 232 184 112 115 179 194 181 188 168 166 140 186 152 146
259 262 251 301 284 267 269 263 259 258 264 266 264 253 249 243 235 225 225 222 227 229 252 219 229 235 232 237 245 218 251 211 187 187 149 203 159 184 191 135 165 139 148
254 253 287 276 285 272 259 259 253 255 251 252 248 244 241 236 232 222 220 218 229 241 243 221 219 213 224 241 267 221 230 231 206 194 185 191 192 190 192 184 176 188 152
241 275 264 264 269 274 278 286 260 246 241 241 239 233 231 231 224 217 216 225 238 237 233 208 217 226 257 239 231 255 253 228 231 233 208 192 189 181 188 187 186 187 182
230 262 252 248 244 243 242 242 237 233 231 235 233 236 228 219 216 217 217 234 224 226 206 234 297 263 246 229 227 233 236 205 226 234 235 212 215 190 213 190 194 179 185
238 260 250 242 240 236 233 231 228 227 227 232 231 221 220 219 222 221 239 224 222 216 256 286 284 260 240 237 237 231 258 282 219 224 242 219 213 207 202 195 208 199 192
276 259 251 241 238 235 233 229 228 228 228 228 229 230 229 229 244 238 223 207 223 252 277 255 253 254 253 265 265 256 216 225 229 223 231 231 228 201 202 205 198 195 191
223 223 229 233 235 237 239 236 237 238 237 236 233 232 232 231 229 229 215 214 247 250 252 227 240 245 246 249 239 217 213 205 215 222 221 218 223 217 213 207 201 196 190
217 222 218 215 216 215 215 214 215 214 214 214 214 215 216 216 215 216 215 224 245 245 236 223 236 232 225 215 209 205 200 200 207 196 210 214 195 210 221 223 219 210 207
214 212 214 216 216 216 223 228 250 269 274 300 344 344 350 370 288 248 248 254 245 241 226 207 230 202 214 206 208 209 202 207 204 218 191 205 214 190 193 206 209 193 214
219 216 216 218 227 241 257 251 255 293 312 300 300 300 320 334 320 263 278 258 229 236 228 214 210 205 205 215 201 202 202 204 202 194 201 195 206 204 207 202 199 221 199
237 226 227 238 240 249 249 250 305 285 279 278 283 281 290 285 254 261 266 233 221 228 218 222 216 209 195 206 207 205 192 194 200 184 201 190 194 193 200 200 201 197 213
236 233 229 241 244 248 248 300 275 275 266 260 254 266 270 260 232 254 237 227 223 225 208 215 214 208 204 211 206 204 195 195 196 191 195 196 206 212 204 203 206 200 204
241 239 239 239 244 268 289 274 253 255 253 247 253 249 258 259 229 241 238 228 216 223 215 203 204 210 202 202 206 209 201 195 198 200 205 206 211 206 201 209 206 200 213
Wind_Speed
40 41 45 42 27 39 49 25 44 35 42 45 36 35 37 34 31 33 37 50 38 35 38 43 44 45 47 42 41 36 40 40 40 37 48 42 36 49 35 58 49 52 46
48 47 42 49 46 50 49 54 54 44 54 35 52 39 43 41 44 35 35 39 35 49 27 39 44 42 47 45 45 42 43 43 42 42 47 43 42 45 13 53 52 54 52
48 49 52 49 55 55 56 36 57 42 32 42 33 55 42 48 47 44 52 41 36 43 42 40 44 43 39 46 47 28 46 45 48 45 51 47 36 42 27 33 59 59 54
47 56 60 56 57 61 60 60 60 62 42 61 49 50 51 50 47 48 51 34 44 40 39 40 43 45 38 59 53 49 50 52 51 48 49 51 44 49 54 48 64 65 62
58 60 56 54 52 62 61 31 57 65 64 65 66 50 56 54 49 50 42 65 45 33 41 48 53 46 46 48 49 56 55 57 50 56 52 50 59 64 67 65 52 64 68
58 64 60 59 69 71 68 44 67 65 79 76 49 62 29 61 51 67 45 54 48 52 52 42 59 57 53 51 53 54 64 60 62 63 60 59 63 65 65 70 59 57 72
60 59 68 69 69 75 73 78 77 56 81 76 77 44 90 61 59 50 50 56 57 44 45 47 63 57 47 71 50 54 68 64 63 67 66 66 63 66 64 59 76 58 65
57 55 70 66 83 80 70 103 59 109 74 86 81 63 64 54 55 43 48 45 46 45 53 47 61 50 27 49 58 63 64 67 68 65 69 69 71 73 70 67 65 66 68
57 92 94 96 110 114 73 98 90 64 82 76 76 60 58 52 57 40 58 46 38 50 48 52 52 48 39 75 71 66 65 67 71 68 69 71 68 77 74 73 68 66 72
94 113 114 120 121 90 49 86 82 77 75 70 65 63 59 52 48 49 46 45 41 50 52 59 53 54 54 78 77 73 67 52 74 72 71 75 52 76 77 78 80 63 68
119 123 116 85 86 83 80 78 75 49 61 54 49 48 48 47 46 48 48 49 42 47 49 47 59 64 52 77 76 77 59 44 56 76 67 74 75 76 78 61 77 79 76
124 96 92 86 80 78 70 56 55 52 45 41 32 38 41 55 39 48 49 48 48 44 51 51 50 52 60 68 58 80 58 83 78 70 82 57 65 76 80 74 78 76 84
96 91 84 81 76 62 53 49 50 50 44 38 34 34 40 45 47 47 44 42 51 49 48 48 51 51 53 55 51 63 84 41 45 76 86 83 83 83 76 82 83 84 86
90 84 81 62 59 60 52 54 47 46 44 38 35 38 40 43 46 47 48 50 50 50 53 58 56 57 54 52 53 54 56 75 92 86 85 87 80 85 86 82 85 76 78
82 76 58 57 59 58 55 53 44 43 41 40 40 40 41 42 45 47 49 50 54 53 53 50 51 54 55 49 45 59 55 60 79 103 91 91 88 92 97 89 87 90 81
73 59 53 49 49 48 47 50 45 39 38 41 42 43 45 45 45 47 50 54 53 53 54 49 51 59 45 46 48 53 51 61 66 67 97 100 100 91 95 91 89 91 91
66 54 49 45 42 40 40 38 39 40 43 44 43 45 47 46 47 50 53 52 53 54 50 58 53 48 52 52 52 49 51 67 61 61 70 87 88 98 94 93 92 89 96
61 51 47 43 40 42 42 42 45 46 47 46 46 47 49 51 53 53 50 50 53 50 54 47 42 45 54 51 52 46 49 49 59 60 58 83 86 89 92 96 90 93 96
45 48 46 44 43 44 44 45 48 49 50 50 52 52 53 55 51 46 47 47 50 46 36 34 35 42 47 51 50 52 51 49 56 59 56 58 72 85 86 84 92 93 98
49 46 45 40 41 42 44 43 43 43 45 46 47 48 48 47 48 47 46 48 45 37 37 34 30 30 33 35 40 47 51 58 53 56 59 63 65 75 82 88 91 92 90
50 46 44 46 48 50 50 50 52 52 53 54 55 57 56 54 53 50 47 48 44 37 38 41 35 39 43 49 53 53 59 59 61 61 63 63 67 65 67 75 79 81 79
52 54 53 53 54 56 60 64 63 59 58 45 20 22 26 28 52 57 50 45 45 40 43 40 42 40 46 51 52 57 57 59 59 66 54 62 67 60 62 65 67 75 75
57 57 58 60 63 62 57 57 59 39 23 19 15 13 16 19 24 39 36 41 46 44 48 50 49 50 52 54 58 60 60 61 64 64 68 65 70 73 74 68 67 77 72
60 59 62 62 60 59 57 57 19 22 22 24 17 11 7 17 28 29 35 48 48 48 52 55 55 59 52 58 62 63 58 62 65 56 69 66 75 74 76 77 78 72 83
53 54 56 58 56 56 51 15 18 21 14 13 14 12 12 24 30 29 44 47 49 52 53 58 58 60 58 64 65 67 65 67 70 62 71 72 80 81 80 81 84 74 83
50 52 52 52 52 35 16 15 20 17 13 16 17 14 15 22 35 35 46 51 51 53 59 56 56 65 62 62 68 69 66 61 67 75 80 85 88 86 74 88 83 78 98
Wind_Direction
279 280 283 282 281 285 287 279 287 282 284 283 259 253 277 268 264 273 294 315 270 263 259 262 251 253 253 265 256 257 266 257 248 249 231 244 247 254 244 271 252 263 265
280 279 289 278 279 277 280 282 283 284 281 260 270 250 279 281 272 271 284 301 283 258 260 258 239 262 250 246 246 254 254 256 253 231 234 240 243 256 238 238 245 258 253
272 272 275 286 277 282 280 281 280 281 276 278 254 286 273 277 284 276 306 298 278 259 243 255 248 250 244 247 249 269 253 249 252 259 267 241 234 228 303 310 257 248 265
267 277 284 278 272 274 282 271 286 289 289 277 281 278 273 277 276 280 297 248 246 264 255 256 248 239 255 239 241 242 241 248 247 247 246 250 224 222 280 252 241 243 260
280 281 272 267 281 283 285 286 285 285 284 288 292 272 279 275 277 277 265 305 260 283 260 266 252 250 249 255 254 231 237 243 265 253 244 244 238 254 254 266 262 249 250
282 286 280 265 287 287 285 290 277 290 294 293 269 277 285 283 275 301 287 252 268 258 267 259 248 241 259 252 258 252 236 242 243 244 242 248 249 254 253 232 271 276 250
285 268 287 285 282 285 282 289 288 286 287 283 285 275 292 287 292 279 286 265 258 268 257 262 243 241 265 243 244 232 237 236 247 241 246 246 251 252 260 260 233 265 256
278 287 282 279 288 288 282 295 280 294 285 291 292 280 286 286 278 265 278 280 274 272 262 253 241 258 261 249 250 230 230 233 234 230 240 246 243 248 247 247 249 259 244
276 292 294 293 295 295 289 291 290 291 292 290 288 278 281 274 248 271 265 266 276 266 241 256 251 250 261 243 241 235 229 238 230 239 234 238 245 246 250 247 248 261 255
294 296 297 297 297 293 285 290 290 291 286 289 281 274 275 265 267 272 267 251 263 259 263 256 257 257 243 240 242 240 237 261 226 239 240 233 272 248 244 247 245 269 268
297 297 297 296 294 292 291 291 291 289 286 277 276 271 265 257 267 268 266 266 268 256 268 263 256 251 259 235 241 238 242 252 251 234 252 244 241 239 241 270 247 255 263
296 300 299 296 294 293 292 283 287 294 290 279 285 265 257 255 270 254 260 267 268 270 268 261 257 255 244 238 248 239 256 240 237 244 236 264 248 249 245 253 248 247 253
299 300 297 295 293 291 285 285 289 296 289 282 270 259 257 256 255 260 262 258 269 255 267 259 257 254 253 260 251 238 240 267 268 241 240 239 240 242 245 256 249 253 254
298 298 297 286 282 287 285 291 289 290 286 277 268 263 260 256 254 259 262 261 265 263 261 252 253 255 255 258 260 243 244 238 243 242 246 242 251 245 245 263 250 267 265
299 298 298 293 285 282 288 287 283 281 278 274 269 265 262 259 256 263 266 271 277 266 261 258 253 254 260 265 262 245 241 242 238 241 245 245 244 243 245 247 252 251 265
296 297 296 293 291 290 285 281 278 274 274 269 266 266 267 265 265 270 273 278 271 266 267 255 260 266 247 249 251 256 245 236 237 231 238 244 247 249 252 253 255 257 258
293 293 291 290 292 290 285 281 278 276 273 269 267 262 264 269 271 273 276 271 268 269 264 271 262 250 236 240 246 245 247 237 238 238 236 237 240 249 246 256 258 258 260
293 292 289 288 287 283 282 281 280 279 278 274 271 270 270 271 271 272 266 265 271 271 270 266 248 245 241 245 246 242 249 242 234 236 240 235 238 241 245 252 248 251 255
297 292 290 289 288 286 283 279 278 279 279 278 275 273 270 269 268 262 263 270 274 277 255 249 246 248 246 248 248 244 224 226 232 235 238 238 237 241 243 245 249 252 256
288 293 296 296 293 289 287 286 283 281 278 276 273 270 268 264 263 261 267 273 274 265 250 243 242 234 230 231 220 219 221 233 233 232 234 237 239 241 244 245 249 254 261
290 292 291 291 292 290 287 286 285 282 279 278 277 276 275 274 272 269 267 269 263 253 236 238 237 224 216 217 225 229 240 243 236 248 240 240 252 245 249 252 253 255 258
288 289 291 291 289 291 293 293 296 298 295 294 310 282 278 265 257 261 259 254 246 240 231 237 229 245 225 233 233 233 247 246 251 242 258 254 253 259 265 271 271 262 271
284 287 290 291 294 297 303 304 305 304 311 305 296 287 305 255 228 243 238 225 238 232 230 233 235 239 245 236 242 244 249 251 253 261 261 265 265 267 270 268 269 273 271
286 289 291 294 301 304 306 307 298 303 325 335 329 322 312 223 225 232 219 224 233 230 235 230 235 237 246 245 245 247 257 257 256 265 259 266 266 270 274 275 275 275 278
289 291 294 299 300 304 307 296 298 310 303 314 305 296 262 222 229 227 216 224 231 232 242 237 240 244 249 247 249 252 257 258 260 265 267 270 270 271 274 279 283 284 289
289 291 295 299 303 306 301 307 305 300 294 296 290 283 289 239 231 230 223 226 234 233 237 248 251 250 257 260 255 255 259 265 266 271 270 271 272 276 280 283 284 282 286